This is the latest recevied weather packets stored in our database for station/object OM6ACB-6. If no packets are shown the sender has not sent any weather packets the latest 10 day(s).
| Time | Temp. | Humidity | Pressure | Rain* | Wind** | Luminosity | Snow |
|---|---|---|---|---|---|---|---|
| 1788335036 | 17.78° C | 24% | 1026.2 hPa | 0 mm | - | - | - |
| 1788334436 | 15.56° C | 25% | 1026 hPa | 0 mm | - | - | - |
| 1788333835 | 16.11° C | 24% | 1026.1 hPa | 0 mm | - | - | - |
| 1788333235 | 14.44° C | 25% | 1025.7 hPa | 0 mm | - | - | - |
| 1788332635 | 13.89° C | 25% | 1025.5 hPa | 0 mm | - | - | - |
| 1788332034 | 13.89° C | 25% | 1025.4 hPa | 0 mm | - | - | - |
| 1788331434 | 13.89° C | 26% | 1025.4 hPa | 0 mm | - | - | - |
| 1788330834 | 13.33° C | 26% | 1025.3 hPa | 0 mm | - | - | - |
| 1788330234 | 12.22° C | 26% | 1025.1 hPa | 0 mm | - | - | - |
| 1788329633 | 11.67° C | 27% | 1025.1 hPa | 0 mm | - | - | - |
| 1788329033 | 11.11° C | 27% | 1025.1 hPa | 0 mm | - | - | - |
| 1788328433 | 11.67° C | 27% | 1025.1 hPa | 0 mm | - | - | - |
| 1788327832 | 11.67° C | 27% | 1025.1 hPa | 0 mm | - | - | - |
| 1788327232 | 12.22° C | 27% | 1025.2 hPa | 0 mm | - | - | - |
| 1788326632 | 11.11° C | 27% | 1025 hPa | 0 mm | - | - | - |
| 1788326032 | 12.22° C | 26% | 1025.1 hPa | 0 mm | - | - | - |
| 1788325431 | 10.56° C | 27% | 1024.8 hPa | 0 mm | - | - | - |
| 1788324831 | 9.44° C | 38% | 1024.5 hPa | 0 mm | - | - | - |
| 1788324231 | 7.78° C | 45% | 1024.2 hPa | 0 mm | - | - | - |
| 1788323630 | 8.33° C | 57% | 1024.2 hPa | 0 mm | - | - | - |
| 1788323030 | 7.22° C | 61% | 1024 hPa | 0 mm | - | - | - |
| 1788322430 | 7.78° C | 61% | 1024 hPa | 0 mm | - | - | - |
| 1788321830 | 7.78° C | 62% | 1024.1 hPa | 0 mm | - | - | - |
| 1788321229 | 7.22° C | 62% | 1024.1 hPa | 0 mm | - | - | - |
| 1788320629 | 7.22° C | 62% | 1024 hPa | 0 mm | - | - | - |
* Rain latest hour (hover to see other rain measurements)
** Current wind speed in m/s (hover to see current wind gust speed)